Regional Weather Roundup
Issued by NWS

Home | Current Version | Previous Version | Graphics & Text | Print | Product List | Glossary On
Versions: 1 2 3 4 5 6 7 8 9 10 11 12 13 14 15 16 17 18 19 20 21 22 23 24 25 26 27 28 29 30 31 32 33 34 35 36 37 38 39 40 41 42 43 44 45 46 47 48 49 50
708
ASUS45 KTFX 240010
RWRMT
MONTANA REGIONAL WEATHER ROUNDUP
NATIONAL WEATHER SERVICE GREAT FALLS MT
600 PM MDT THU MAR 23 2017

NOTE: "FAIR" INDICATES FEW OR NO CLOUDS BELOW 12000 FEET WITH NO
SIGNIFICANT WEATHER AND/OR OBSTRUCTIONS TO VISIBILITY.

MTZ001>007-043-240100-
WEST OF THE DIVIDE

CITY           SKY/WX    TMP DP  RH WIND       PRES   REMARKS
KALISPELL      PTSUNNY   48  24  39 SW7       29.98S
MISSOULA       SUNNY     50  22  33 NW12      29.99S
BUTTE          SUNNY     49  20  31 NW14      29.92R
MULLAN PASS    CLOUDY    28  23  81 SW3       29.98S
ANACONDA         N/A     46  19  34 NE9       29.93R
DEER LODGE       N/A     46  19  34 NW16G23   29.96R
EUREKA           N/A     48  21  34 SW10      29.99S
HAMILTON         N/A     52  19  28 W5        29.97R
PLAINS           N/A     49  27  42 W9        30.02F
RONAN            N/A     50  24  36 W6        30.05R
$$

MTZ008-052>055-240100-
SOUTHWEST MONTANA

CITY           SKY/WX    TMP DP  RH WIND       PRES   REMARKS
BOZEMAN        SUNNY     53  24  32 N8        29.91R
DILLON         SUNNY     52  18  26 CALM      29.89R
W YELLOWSTONE  CLOUDY    46  18  31 NW12G20   29.90R
ENNIS          SUNNY     50  21  32 N8        29.95S
THREE FORKS      N/A     54  54 100 NE2       29.91R
TWIN BRIDGES     N/A     54  19  25 N2        29.91R
$$

MTZ009-010-012-014-046-048-049-054-240100-
EAST SLOPES AND CENTRAL MONTANA

CITY           SKY/WX    TMP DP  RH WIND       PRES   REMARKS
CUT BANK       SUNNY     48  22  35 W24       29.89R
GREAT FALLS    SUNNY     55  17  22 W13       29.88R
MALMSTROM AFB  SUNNY     54  17  23 W13       29.89R
HELENA         SUNNY     53  20  27 NW17      29.91S
AUGUSTA          N/A     47  18  32 W22       29.90R
CHOTEAU          N/A     50  19  29 W13       29.92R
CONRAD           N/A     51  24  35 W18       29.92R
$$

MTZ011-013-016-021-045-047-050-051-240100-
NORTH CENTRAL MONTANA

CITY           SKY/WX    TMP DP  RH WIND       PRES   REMARKS
HAVRE            N/A     59  23  25 NW8       29.83R
LEWISTOWN      SUNNY     53  19  26 NW9       29.87R
N BAR RANCH    CLOUDY    54  23  30 N16       29.89R
CHINOOK          N/A     59  21  23 NW9       29.83R
DENTON           N/A     54  17  22 NW16G22   29.84R
FORT BENTON      N/A     59  19  21 MISG      29.87R
$$

MTZ017>020-022>027-061-062-240100-
NORTHEAST MONTANA

CITY           SKY/WX    TMP DP  RH WIND       PRES   REMARKS
GLASGOW        SUNNY     58  28  32 MISG      29.81R
JORDAN           N/A     59  27  29 NW14      29.82R
SIDNEY         SUNNY     57  39  51 NE8       29.78R
WOLF POINT     SUNNY     63  32  31 NW14      29.78R
MALTA          MOSUNNY   59  28  31 W14G20    29.82R
PLENTYWOOD       N/A     52  37  58 NE9       29.80R
POPLAR           N/A     61  37  41 N5        29.78R
SCOBEY           N/A     57  29  34 N10       29.80
$$

MTZ028>42-056>058-240100-
SOUTHCENTRAL AND SOUTHEAST MONTANA

CITY           SKY/WX    TMP DP  RH WIND       PRES   REMARKS
BAKER          CLOUDY    50  38  63 S8        29.82R
BILLINGS       CLOUDY    53  35  50 SE7       29.87R
LIVINGSTON     MOSUNNY   51  24  34 NW9       29.88R
MILES CITY     CLOUDY    56  41  57 SW14      29.81R
BIG TIMBER     PTSUNNY   54  21  28 W17G25    29.89R
EKALAKA          N/A     47  37  68 CALM      29.84R
FORSYTH          N/A     55  37  50 SW8       29.83R
LAUREL           N/A     53  33  46 E6        29.87
$$

REGIONAL REPORTS...DAKOTAS

CITY           SKY/WX    TMP DP  RH WIND       PRES   REMARKS
WILLISTON      SUNNY     56  36  47 NE8       29.80R
MINOT          CLOUDY    42  34  73 N8        29.78S
DICKINSON      CLOUDY    49  34  56 S6        29.77R
BEACH            N/A    N/A N/A N/A MISG        N/A
TIOGA            N/A     48  41  76 N9        29.81R
WATFORD CITY     N/A     55  39  54 N6        29.78R
BISMARCK       LGT RAIN  42  39  89 NW7       29.80R FOG
GRAND FORKS    CLOUDY    37  35  92 S8        29.80S WCI  31
FARGO          CLOUDY    37  36  96 SE10      29.79F FOG     WCI  30
BUFFALO SD       N/A     44  41  89 CALM      29.78R
RAPID CITY     CLOUDY    46  39  76 N22       29.78R
$$

REGIONAL REPORTS...WYOMING/IDAHO/WASHINGTON

CITY           SKY/WX    TMP DP  RH WIND       PRES   REMARKS
GILLETTE       CLOUDY    40  50 100 N13       29.87R
SHERIDAN       CLOUDY    44  38  79 W8        29.90R
BUFFALO WY     CLOUDY    41  36  82 N17G25    29.90R
CODY           CLOUDY    44  33  65 SW10      29.92R
YELLOWSTONE LA   N/A     40  20  44 NW9       29.93R
IDAHO FALLS    CLOUDY    56  24  29 N10       29.89R
SALMON         SUNNY     54  19  26 N6        29.91R
BOISE          SUNNY     55  22  27 NW12      30.00F
SPOKANE        PTSUNNY   47  27  45 VRB3      30.03F
$$

REGIONAL REPORTS...ALBERTA

CITY           SKY/WX    TMP DP  RH WIND       PRES   REMARKS
EDMONTON       SUNNY     36  27  69 CALM      29.88R
CALGARY        PTSUNNY   41  30  65 NE10G18   29.86R
LETHBRIDGE     PTSUNNY   52  19  28 W25       29.84R
MEDICINE HAT   MOSUNNY   57  21  24 N7        29.80R
WATERTON GATE    N/A     46  16  29 W16G25      N/A
CARDSTON         N/A     46  16  29 W13G18      N/A
MILK RIVER       N/A     54  19  26 W16         N/A
$$

REGIONAL REPORTS...SASKATCHEWAN

CITY           SKY/WX    TMP DP  RH WIND       PRES   REMARKS
SWIFT CURRENT  SUNNY     50  32  50 NW9       29.80R
REGINA         MOSUNNY   46  28  49 N6        29.83R
SASKATOON      MOSUNNY   37  27  65 NE7       29.89R
CYPRESS HILLS    N/A     48  18  29 NW8         N/A
VAL MARIE        N/A     55  27  33 W14         N/A
ROCKGLEN         N/A     52  34  50 N7          N/A
ASSINIBOIA       N/A     28  19  69 E6          N/A  WCI  22
$$




USA.gov is the U.S. government's official web portal to all federal, state and local government web resources and services.